sat.trackr.live / text

‹ back to catalog

UHETSAT

NORAD 58466 · 2023-185E

PAYLOAD ACTIVE UNKNOWN

§ Identity

Operator
Country
IT
Launch date
2023-12-01
Launch site
AFWTR
Launch vehicle
Mass (kg)
RCS (m²)

External: N2YO · Heavens-Above · Gunter

§ Orbital elements

Epoch: 2026-09-21T22:30:29.725056Z

Period
93.98 min
Inclination
97.3385°
Eccentricity
0.0011569
Mean motion
15.32285621 rev/d
Perigee alt
461.1 km
Apogee alt
476.9 km
Semi-major
6,847.1 km
B*
1.3502e-4
RAAN
331.5517°
Arg perigee
332.9351°
Mean anomaly
27.1287°
Rev number
15,610

§ Raw data

UHETSAT1 58466U 23185E   26264.93784404  .00004138  00000+0  13502-3 0  99962 58466  97.3385 331.5517 0011569 332.9351  27.1287 15.32285621156104

JSON: /api/v1/satellites/58466 · /tle

For live sub-satellite position, see the globe view (requires WebGL).

§ Visibility from observer

Set your observer location to see the next 7 days of passes ≥ 10°. The values pass through the URL so the page stays shareable.

No JS? Fill the form by hand. The geolocation button needs JavaScript.

§ Radio — SatNOGS DB

ModeDescriptionDownlinkUplink
FSK Mode U - Transmitter 401.500 MHz

1 transmitter · refreshed weekly from db.satnogs.org